Regional Weather Roundup
Issued by NWS

Home | Current Version | Previous Version | Text Only | Print | Product List | Glossary On
Versions: 1 2 3 4 5 6 7 8 9 10 11 12 13 14 15 16 17 18 19 20 21 22 23 24 25 26 27 28 29 30 31 32 33 34 35 36 37 38 39 40 41 42 43 44 45 46 47 48 49 50
000
ASUS44 KJAN 202110
RWRMS

MISSISSIPPI HOURLY WEATHER ROUNDUP
NATIONAL WEATHER SERVICE JACKSON MS
400 PM CDT SAT SEP 20 2014

NOTE: "FAIR: INDICATES FEW OR NO CLOUDS BELOW 12,000 FEET WITH NO
SIGNIFICANT WEATHER AND/OR OBSTRUCTIONS TO VISIBILITY.

MSZ001>002-007>008-010>013-018>021-025>028-034>036-202200-
NORTHWEST MISSISSIPPI

CITY           SKY/WX    TMP DP  RH WIND       PRES   REMARKS
CLARKSDALE     FAIR      91  64  40 CALM      29.98F HX  93
CLEVELAND      FAIR      91  65  42 E6        29.96F HX  93
GREENWOOD      MOSUNNY   90  65  43 E5        29.97F HX  92
GREENVILLE     SUNNY     92  59  33 E5        29.96F HX  91
GRENADA        FAIR      88  64  45 E8        29.99F
OLIVE BRANCH   PTSUNNY   88  66  48 CALM      30.00F HX  90
OXFORD         FAIR      84  66  54 CALM      30.01F
TUNICA         MOCLDY    86  66  51 CALM      29.99F
$$

MSZ003>006-009-014>017-022>024-029>033-037>039-202200-
NORTHEAST MISSISSIPPI

CITY           SKY/WX    TMP DP  RH WIND       PRES   REMARKS
COLUMBUS AFB   MOSUNNY   88  64  44 VRB6      30.00F
CORINTH        MOCLDY    86  64  48 S7        30.00F
GOLDN TRIANGLE MOSUNNY   88  64  45 E6        30.01F
STARKVILLE     FAIR      86  63  45 CALM      30.00F
TUPELO         SUNNY     87  65  47 E6        30.00F
$$

MSZ040-058-202200-
CENTRAL MISSISSIPPI

CITY           SKY/WX    TMP DP  RH WIND       PRES   REMARKS
JACKSON INTL   MOSUNNY   89  64  43 VRB6      29.98F HX  90
JACKSON HAWKNS MOSUNNY   89  66  46 E9        29.98F HX  91
MERIDIAN KEY   MOSUNNY   88  62  41 VRB3      29.98F
MERIDIAN NAS   MOSUNNY   88  62  41 E7        29.99S
RAYMOND        FAIR      91  86  84 E5        29.97F HX 122
VICKSBURG      SUNNY     91  66  43 E7        29.96F HX  93
$$

MSZ059>079-202200-
SOUTH MISSISSIPPI

CITY           SKY/WX    TMP DP  RH WIND       PRES   REMARKS
BROOKHAVEN     FAIR      88  64  45 E7        29.99F
COLUMBIA       FAIR      86  68  54 NE7       29.96S
HATTIESBURG    MOSUNNY   88  65  46 E8        29.97S HX  90
MCCOMB         MOSUNNY   88  64  44 VRB7      29.97F
NATCHEZ        MOSUNNY   88  70  55 E8        29.97F HX  92
PINE BELT      MOSUNNY  N/A N/A N/A NE8G17    29.99S
$$

MSZ080>082-202200-
COASTAL MISSISSIPPI

CITY           SKY/WX    TMP DP  RH WIND       PRES   REMARKS
BAY ST LOUIS   MOSUNNY   88  66  48 SE10      29.95S HX  90
BILOXI         MOSUNNY   87  67  51 E8        29.94F
PASCAGOULA     MOSUNNY   87  68  52 E13       29.95F HX  90
GULFPORT       PTSUNNY   86  70  58 SE12      29.94S HX  90
$$



USA.gov is the U.S. government's official web portal to all federal, state and local government web resources and services.